Regional Weather Roundup
Issued by NWS Jackson, KY

Home | Current Version | Previous Version | Text Only | Print | Product List | Glossary Off
Versions: 1 2 3 4 5 6 7 8 9 10 11 12 13 14 15 16 17 18 19 20 21 22 23 24 25 26 27 28 29 30 31 32 33 34 35 36 37 38 39 40 41 42 43 44 45 46 47 48 49 50

000
ASUS43 KJKL 242310
RWRJKL

EAST KENTUCKY HOURLY WEATHER ROUNDUP
NATIONAL WEATHER SERVICE JACKSON KY
700 PM EDT WED AUG 24 2016

NOTE: "FAIR" INDICATES FEW OR NO CLOUDS BELOW 12,000 FEET WITH
NO SIGNIFICANT WEATHER AND/OR OBSTRUCTIONS TO VISIBILITY.

* THESE REPORTS ARE NOT UNDER NWS QUALITY CONTROL AND MAY NOT
  REPORT WEATHER SUCH AS PRECIPITATION AND FOG.

KYZ079-080-083-085-087-088-110-112-115-119-120-250000
...EASTERN KENTUCKY...

CITY           SKY/WX    TMP DP  RH WIND       PRES   REMARKS
JACKSON        MOSUNNY   84  71  65 CALM      30.18S
LONDON         SUNNY     86  68  54 SW6       30.16F
SOMERSET*      SUNNY     86  68  54 W7        30.16S
MONTICELLO*    SUNNY    N/A N/A N/A W14       30.17S
WILLIAMSBURG*  CLEAR     84  73  70 SW3       30.17S HX  91
MIDDLESBORO*   SUNNY     86  71  61 S5        30.17S HX  91
HARLAN APT*    PTCLDY    82  68  61 CALM      30.19F
PIKE CO APT*     N/A     82  71  69 CALM      30.19S
BIG SANDY APT* MOCLDY    84  71  66 CALM      30.17F
MOREHEAD APT*  PTCLDY    82  72  69 S6        30.16S
ASHLAND*       MOSUNNY   84  72  65 SW5       30.11S
$$

KYZ035-036-041-042-044-050-067-078-099-250000
...CENTRAL KENTUCKY...

CITY           SKY/WX    TMP DP  RH WIND       PRES   REMARKS
MT STERLING*   CLOUDY    86  72  62 W8        30.15S HX  92
FLEMING/MASON* CLOUDY    83  73  70 S6        30.13S
DANVILLE*      SUNNY     86  72  62 SW7       30.15S HX  92
LEXINGTON      SUNNY     86  71  60 SW10      30.13F HX  91
FRANKFORT      SUNNY     87  71  58 SW12      30.11S HX  93
LOUISVILLE     PTSUNNY   88  71  57 S10       30.08R HX  94
LEBANON*         N/A     86  72  62 S9        30.13S HX  92
GLASGOW*       MOSUNNY   87  73  62 S5        30.12F HX  94
BOWLING GREEN  MOSUNNY   89  71  55 SW15      30.10S HX  95
$$

KYZ091>093-OHZ055-061-077-WVZ005-015-034-035-042-250000
...SOUTHERN OHIO/WEST VIRGINIA...

CITY           SKY/WX    TMP DP  RH WIND       PRES   REMARKS
COVINGTON      CLOUDY    83  73  72 S7        30.08F
COLUMBUS       CLOUDY    80  70  71 S9        30.08F
DAYTON         LGT RAIN  78  74  87 S9        30.06F
WILMINGTON     CLOUDY    79  73  82 S9        30.08F
HUNTINGTON     MOSUNNY   83  71  67 SE3       30.13F
CHARLESTON     CLOUDY    82  70  66 SE5       30.16F
PINEVILLE*     SUNNY     76  69  78 MISG      30.27R
BECKLEY        SUNNY     75  65  70 SW3       30.26F
BLUEFIELD      MOSUNNY   75  64  68 VRB3      30.29S
LOGAN CO APT*    N/A     81  70  69 CALM      30.19S
$$

VAZ002-007-008-TNZ017-027-036-066-071-250000
...SOUTHWEST VIRGINIA/EAST TENNESSEE...

CITY           SKY/WX    TMP DP  RH WIND       PRES   REMARKS
WISE*          MOSUNNY   77  61  57 S6        30.29S
JONESVILLE*      N/A     84  70  61 CALM      30.21F
ABINGDON*      SUNNY     81  67  63 SW3       30.25S
BRISTOL        PTSUNNY   82  66  58 CALM      30.21F
MORRISTOWN*    MOCLDY    86  70  58 S5        30.18S HX  90
SEVIERVILLE*     N/A     88  68  51 W5        30.16S HX  91
KNOXVILLE      MOSUNNY   87  69  54 SW7       30.16S HX  91
CROSSVILLE     MOSUNNY   82  71  69 VRB3      30.22F
NASHVILLE      PTSUNNY   90  70  51 SW6       30.12S HX  95
$$

...KEY TO REMARKS...
VSB - VISIBILITY IN MILES
WCI - WIND CHILL INDEX
HX  - HEAT INDEX

$$



USA.gov is the U.S. government's official web portal to all federal, state and local government web resources and services.